User: anonymous   Login
Location: Demmingen
(48.6757°N, 10.4375°E)
Time: 12:34:38
(UTC+00:00)
Language:

ADEOS II - Orbit

View from above orbital plane
View from above orbital plane
View from above satellite
View from above satellite

Ground track
Ground track

The orbit data is extracted from the following two-line orbital elements,

1 27597U 02056A   24198.87828057  .00000602  00000-0  25844-3 0  9996
2 27597  98.6925 145.4461 0000962  32.4711 327.6529 14.28411551124475
Epoch (UTC): 16 July 2024 21:04:43
Eccentricity: 0.0000962
inclination: 98.6925°
perigee height: 796 km
apogee height: 798 km
right ascension of ascending node: 145.4461°
argument of perigee: 32.4711°
revolutions per day: 14.28411551
mean anomaly at epoch: 327.6529°
orbit number at epoch: 12447

The dashed part of the orbit path shows where the satellite is in the earth's shadow,  

DLR